Flag for New Zealand Weather past 2 weeks in Palmerston North, New Zealand

Now
52 °F

Partly sunny.


Feels Like: 45 °F
Forecast: 30 / 56 °F
Wind: 26 mph from South

Location: Wellington Airport

Current Time: May 27, 2015 at 4:39:25 PM

Latest Report: May 27, 2015 at 3:30 PM


Visibility: 4 mi

Pressure: 30.07 "Hg

Humidity: 67%

Dew point: 41 °F

Location of Palmerston NorthLocation

Historic Weather in Palmerston North — Graph

°F

Palmerston North temperature yesterday

Maximum temperature yesterday: 54 °F (at 2:00 PM)
Minimum temperature yesterday: 36 °F (at 6:00 AM)
Average temperature yesterday: 45 °F

Past Weeks' High & Low Weather Summary

 TemperatureHumidityPressure
High64 °F (May 21, 3:30 PM)100% (May 15, 12:30 AM)30.21 "Hg (May 15, 12:30 AM)
Low36 °F (May 26, 6:00 AM)33% (May 26, 4:00 PM)29.27 "Hg (May 12, 3:00 PM)
Average53 °F73%29.78 "Hg
* Reported May 12 3:00 PM — May 27 3:30 PM, Palmerston North, Weather by CustomWeather, © 2015

Note: Actual official high and low records may vary slightly from our data, if they occured in-between our weather recording intervals... More about our weather records

Advertising

Palmerston North weather history for previous 24 hours

 ConditionsComfort  
Time TempWeatherWind HumidityBarometerVisibility
3:30 PM
Wed, May 27
52 °FPartly sunny.26 mph67%30.07 "Hg4 mi
3:00 PM52 °FPartly sunny.26 mph72%30.04 "Hg4 mi
2:30 PM52 °FBroken clouds.29 mph72%30.04 "Hg4 mi
2:00 PM52 °FBroken clouds.30 mph72%30.04 "Hg3 mi
1:30 PM52 °FPartly sunny.28 mph67%30.04 "Hg3 mi
1:00 PM52 °FBroken clouds.30 mph67%30.04 "Hg4 mi
12:30 PM52 °FBroken clouds.28 mph72%30.01 "Hg3 mi
12:00 PM52 °FPartly sunny.30 mph67%30.01 "Hg4 mi
11:30 AM52 °FScattered showers. Partly sunny.30 mph67%30.01 "Hg4 mi
11:00 AM52 °FMostly cloudy.30 mph67%30.01 "Hg4 mi
10:30 AM52 °FOvercast.31 mph67%30.01 "Hg4 mi
10:00 AM52 °FBroken clouds.31 mph67%29.98 "Hg4 mi
9:30 AM52 °FPartly sunny.30 mph67%29.98 "Hg4 mi
9:00 AM52 °FScattered showers. Mostly cloudy.33 mph62%29.98 "Hg5 mi
8:30 AM52 °FOvercast.31 mph67%29.95 "Hg5 mi
8:00 AM52 °FPartly sunny.32 mph62%29.95 "Hg4 mi
7:30 AM52 °FPartly sunny.30 mph62%29.95 "Hg5 mi
7:00 AM52 °FPartly sunny.31 mph62%29.92 "Hg4 mi
6:30 AM52 °FPassing clouds.31 mph62%29.92 "HgN/A
6:00 AM52 °FPassing clouds.31 mph62%29.92 "HgN/A
5:30 AM52 °FPartly cloudy.31 mph62%29.89 "Hg4 mi
5:00 AM52 °FPassing clouds.29 mph62%29.89 "Hg4 mi
4:30 AM52 °FOvercast.32 mph67%29.89 "Hg4 mi
4:00 AM52 °FPassing clouds.31 mph67%29.89 "Hg4 mi
3:30 AM52 °FPassing clouds.33 mph62%29.89 "Hg4 mi
3:00 AM52 °FPassing clouds.35 mph62%29.89 "Hg4 mi
2:30 AM52 °FPassing clouds.33 mph58%29.86 "Hg5 mi
2:00 AM52 °FCool.31 mph62%29.86 "Hg4 mi
1:30 AM52 °FCool.30 mph62%29.86 "Hg5 mi
1:00 AM52 °FCool.33 mph62%29.86 "Hg4 mi
12:30 AM52 °FPassing clouds.31 mph62%29.86 "Hg4 mi
12:00 AM52 °FPassing clouds.28 mph62%29.86 "HgN/A
11:30 PM
Tue, May 26
52 °FPassing clouds.17 mph67%29.86 "HgN/A
11:00 PM41 °FPassing clouds.5 mph81%29.86 "HgN/A
10:30 PM43 °FPassing clouds.5 mph76%29.86 "HgN/A
10:00 PM43 °FQuite cool.3 mph76%29.86 "HgN/A
9:30 PM43 °FPassing clouds.5 mph81%29.83 "HgN/A
9:00 PM43 °FQuite cool.3 mph76%29.83 "HgN/A
8:30 PM43 °FQuite cool.3 mph81%29.83 "HgN/A
8:00 PM45 °FQuite cool.5 mph76%29.83 "HgN/A
7:30 PM45 °FQuite cool.6 mph66%29.80 "HgN/A
7:00 PM45 °FQuite cool.5 mph66%29.80 "HgN/A
6:30 PM45 °FQuite cool.3 mph66%29.80 "HgN/A
6:00 PM48 °FCool.2 mph58%29.80 "Hg4 mi
5:30 PM50 °FHaze.2 mph58%29.80 "Hg3 mi
5:00 PM50 °FCool.3 mph47%29.80 "HgN/A
4:30 PM54 °FCool.3 mph47%29.80 "Hg4 mi
4:00 PM54 °FCool.2 mph33%29.77 "HgN/A
Weather by CustomWeather, © 2015

See weather overviewHow to use our weather pages